Location: Trebic
(49.2170°N, 15.8830°E)
Time: 15:22:46
(UTC+02:00)

Transit 4A - Pass Details

Date: 27 August 2019
Orbit: 865 x 979 km, 66.8° (Epoch: 22 September)

Event Time Altitude Azimuth Distance (km) Brightness Sun altitude
Rises 18:53:08 0° 228° (SW) 3,669 11.7 8.3°
Reaches altitude 10° 18:55:44 10° 232° (SW) 2,726 11.2 7.9°
Maximum altitude 19:02:03 60° 311° (NW) 1,113 8.9 6.9°
Drops below altitude 10° 19:08:21 10° 32° (NNE) 2,714 10.1 5.9°
Sets 19:10:57 0° 36° (NE) 3,651 10.7 5.5°
